Time,TemperatureF,DewpointF,PressureIn,WindDirection,WindDirectionDegrees,WindSpeedMPH,WindSpeedGustMPH,Humidity,HourlyPrecipIn,Conditions,Clouds,dailyrainin,SoftwareType,DateUTC
2013-01-18 00:04:00,60.0,50.0,30.13,NW,317,4.0,7.0,70,-99.99,,,-99.99,,2013-01-18 05:04:00,
2013-01-18 00:12:00,60.0,50.0,30.13,NW,317,4.0,7.0,70,-99.99,,,-99.99,,2013-01-18 05:12:00,
2013-01-18 00:22:00,59.0,50.0,30.12,NNW,327,4.0,8.0,72,-99.99,,,-99.99,,2013-01-18 05:22:00,
2013-01-18 00:33:00,59.0,50.0,30.12,NNW,327,4.0,8.0,72,-99.99,,,-99.99,,2013-01-18 05:33:00,
2013-01-18 00:43:00,59.0,50.0,30.13,NW,306,3.0,6.0,73,-99.99,,,-99.99,,2013-01-18 05:43:00,
2013-01-18 00:53:00,59.0,50.0,30.13,NW,306,3.0,6.0,73,-99.99,,,-99.99,,2013-01-18 05:53:00,
2013-01-18 01:02:00,58.0,50.0,30.13,WNW,286,5.0,11.0,74,-99.99,,,-99.99,,2013-01-18 06:02:00,
2013-01-18 01:12:00,58.0,50.0,30.13,WNW,286,5.0,11.0,74,-99.99,,,-99.99,,2013-01-18 06:12:00,
2013-01-18 01:22:00,58.0,50.0,30.13,NW,307,4.0,7.0,73,-99.99,,,-99.99,,2013-01-18 06:22:00,
2013-01-18 01:33:00,58.0,50.0,30.13,NW,307,4.0,7.0,73,-99.99,,,-99.99,,2013-01-18 06:33:00,
2013-01-18 01:43:00,58.0,50.0,30.13,NW,311,3.0,7.0,74,-99.99,,,-99.99,,2013-01-18 06:43:00,
2013-01-18 01:53:00,58.0,50.0,30.13,NW,311,3.0,7.0,74,-99.99,,,-99.99,,2013-01-18 06:53:00,
2013-01-18 02:02:00,56.0,49.0,30.13,NW,306,3.0,8.0,77,-99.99,,,-99.99,,2013-01-18 07:02:00,
2013-01-18 02:12:00,56.0,49.0,30.13,NW,306,3.0,8.0,77,-99.99,,,-99.99,,2013-01-18 07:12:00,
2013-01-18 02:22:00,56.0,49.0,30.13,NW,312,3.0,5.0,78,-99.99,,,-99.99,,2013-01-18 07:22:00,
2013-01-18 02:33:00,56.0,49.0,30.13,NW,312,3.0,5.0,78,-99.99,,,-99.99,,2013-01-18 07:33:00,
2013-01-18 02:42:00,55.0,49.0,30.13,WSW,238,2.0,3.0,80,-99.99,,,-99.99,,2013-01-18 07:42:00,
2013-01-18 02:52:00,55.0,49.0,30.13,WSW,238,2.0,3.0,80,-99.99,,,-99.99,,2013-01-18 07:52:00,
2013-01-18 03:02:00,54.0,49.0,30.13,NW,324,2.0,5.0,83,-99.99,,,-99.99,,2013-01-18 08:02:00,
2013-01-18 03:12:00,54.0,49.0,30.13,NW,324,2.0,5.0,83,-99.99,,,-99.99,,2013-01-18 08:12:00,
2013-01-18 03:22:00,57.0,50.0,30.14,SSE,158,2.0,6.0,78,-99.99,,,-99.99,,2013-01-18 08:22:00,
2013-01-18 03:32:00,57.0,50.0,30.14,SSE,158,2.0,6.0,78,-99.99,,,-99.99,,2013-01-18 08:32:00,
2013-01-18 03:42:00,57.0,50.0,30.14,SW,226,3.0,7.0,77,-99.99,,,-99.99,,2013-01-18 08:42:00,
2013-01-18 03:53:00,57.0,50.0,30.14,SW,226,3.0,7.0,77,-99.99,,,-99.99,,2013-01-18 08:53:00,
2013-01-18 04:03:00,57.0,49.0,30.13,WNW,283,4.0,8.0,76,-99.99,,,-99.99,,2013-01-18 09:03:00,
2013-01-18 04:12:00,57.0,49.0,30.13,WNW,283,4.0,8.0,76,-99.99,,,-99.99,,2013-01-18 09:12:00,
2013-01-18 04:22:00,57.0,49.0,30.14,WSW,239,5.0,11.0,73,-99.99,,,-99.99,,2013-01-18 09:22:00,
2013-01-18 04:33:00,57.0,49.0,30.14,WSW,239,5.0,11.0,73,-99.99,,,-99.99,,2013-01-18 09:33:00,
2013-01-18 04:42:00,57.0,49.0,30.14,SSE,152,4.0,8.0,73,-99.99,,,-99.99,,2013-01-18 09:42:00,
2013-01-18 04:53:00,57.0,49.0,30.14,SSE,152,4.0,8.0,73,-99.99,,,-99.99,,2013-01-18 09:53:00,
2013-01-18 05:03:00,56.0,48.0,30.14,SSE,156,4.0,8.0,75,-99.99,,,-99.99,,2013-01-18 10:03:00,
2013-01-18 05:12:00,56.0,48.0,30.14,SSE,156,4.0,8.0,75,-99.99,,,-99.99,,2013-01-18 10:12:00,
2013-01-18 05:22:00,55.0,48.0,30.14,WSW,254,3.0,6.0,77,-99.99,,,-99.99,,2013-01-18 10:22:00,
2013-01-18 05:33:00,55.0,48.0,30.14,WSW,254,3.0,6.0,77,-99.99,,,-99.99,,2013-01-18 10:33:00,
2013-01-18 05:43:00,56.0,49.0,30.15,West,281,3.0,6.0,76,-99.99,,,-99.99,,2013-01-18 10:43:00,
2013-01-18 05:53:00,56.0,49.0,30.15,West,281,3.0,6.0,76,-99.99,,,-99.99,,2013-01-18 10:53:00,
2013-01-18 06:03:00,56.0,49.0,30.15,WSW,239,4.0,7.0,75,-99.99,,,-99.99,,2013-01-18 11:03:00,
2013-01-18 06:12:00,56.0,49.0,30.15,WSW,239,4.0,7.0,75,-99.99,,,-99.99,,2013-01-18 11:12:00,
2013-01-18 06:23:00,57.0,48.0,30.16,WSW,240,6.0,12.0,72,-99.99,,,-99.99,,2013-01-18 11:23:00,
2013-01-18 06:33:00,57.0,48.0,30.16,WSW,240,6.0,12.0,72,-99.99,,,-99.99,,2013-01-18 11:33:00,
2013-01-18 06:42:00,56.0,47.0,30.16,West,267,8.0,16.0,71,-99.99,,,-99.99,,2013-01-18 11:42:00,
2013-01-18 06:53:00,56.0,47.0,30.16,West,267,8.0,16.0,71,-99.99,,,-99.99,,2013-01-18 11:53:00,
2013-01-18 07:03:00,56.0,46.0,30.17,SW,231,7.0,14.0,71,-99.99,,,-99.99,,2013-01-18 12:03:00,
2013-01-18 07:12:00,56.0,46.0,30.17,SW,231,7.0,14.0,71,-99.99,,,-99.99,,2013-01-18 12:12:00,
2013-01-18 07:23:00,54.0,45.0,30.19,South,176,7.0,15.0,70,-99.99,,,-99.99,,2013-01-18 12:23:00,
2013-01-18 07:33:00,54.0,45.0,30.19,South,176,7.0,15.0,70,-99.99,,,-99.99,,2013-01-18 12:33:00,
2013-01-18 07:43:00,54.0,45.0,30.20,SE,125,7.0,16.0,70,-99.99,,,-99.99,,2013-01-18 12:43:00,
2013-01-18 07:53:00,54.0,45.0,30.20,SE,125,7.0,16.0,70,-99.99,,,-99.99,,2013-01-18 12:53:00,
2013-01-18 08:03:00,53.0,44.0,30.20,ENE,74,7.0,15.0,71,-99.99,,,-99.99,,2013-01-18 13:03:00,
2013-01-18 08:12:00,53.0,44.0,30.20,ENE,74,7.0,15.0,71,-99.99,,,-99.99,,2013-01-18 13:12:00,
2013-01-18 08:23:00,53.0,44.0,30.22,SE,124,6.0,11.0,72,-99.99,,,-99.99,,2013-01-18 13:23:00,
2013-01-18 08:33:00,53.0,44.0,30.22,SE,124,6.0,11.0,72,-99.99,,,-99.99,,2013-01-18 13:33:00,
2013-01-18 08:43:00,53.0,44.0,30.23,ENE,77,7.0,13.0,72,-99.99,,,-99.99,,2013-01-18 13:43:00,
2013-01-18 08:53:00,53.0,44.0,30.23,ENE,77,7.0,13.0,72,-99.99,,,-99.99,,2013-01-18 13:53:00,
2013-01-18 09:03:00,52.0,44.0,30.24,East,92,7.0,13.0,72,-99.99,,,-99.99,,2013-01-18 14:03:00,
2013-01-18 09:13:00,52.0,44.0,30.24,East,92,7.0,13.0,72,-99.99,,,-99.99,,2013-01-18 14:13:00,
2013-01-18 09:23:00,52.0,43.0,30.25,ENE,57,6.0,10.0,72,-99.99,,,-99.99,,2013-01-18 14:23:00,
2013-01-18 09:34:00,52.0,43.0,30.25,ENE,57,6.0,10.0,72,-99.99,,,-99.99,,2013-01-18 14:34:00,
2013-01-18 09:43:00,51.0,43.0,30.26,East,95,6.0,10.0,71,-99.99,,,-99.99,,2013-01-18 14:43:00,
2013-01-18 09:53:00,51.0,43.0,30.26,East,95,6.0,10.0,71,-99.99,,,-99.99,,2013-01-18 14:53:00,
2013-01-18 10:03:00,51.0,42.0,30.26,ENE,58,7.0,14.0,71,-99.99,,,-99.99,,2013-01-18 15:03:00,
2013-01-18 10:13:00,51.0,42.0,30.26,ENE,58,7.0,14.0,71,-99.99,,,-99.99,,2013-01-18 15:13:00,
2013-01-18 10:23:00,50.0,41.0,30.28,East,85,7.0,15.0,70,-99.99,,,-99.99,,2013-01-18 15:23:00,
2013-01-18 10:34:00,50.0,41.0,30.28,East,85,7.0,15.0,70,-99.99,,,-99.99,,2013-01-18 15:34:00,
2013-01-18 10:43:00,49.0,39.0,30.28,SSW,198,7.0,13.0,68,-99.99,,,-99.99,,2013-01-18 15:43:00,
2013-01-18 10:54:00,49.0,39.0,30.28,SSW,198,7.0,13.0,68,-99.99,,,-99.99,,2013-01-18 15:54:00,
2013-01-18 11:03:00,49.0,40.0,30.29,ESE,106,6.0,13.0,68,-99.99,,,-99.99,,2013-01-18 16:03:00,
2013-01-18 11:13:00,49.0,40.0,30.29,ESE,106,6.0,13.0,68,-99.99,,,-99.99,,2013-01-18 16:13:00,
2013-01-18 11:23:00,50.0,39.0,30.29,East,97,7.0,12.0,67,-99.99,,,-99.99,,2013-01-18 16:23:00,
2013-01-18 11:33:00,50.0,39.0,30.29,East,97,7.0,12.0,67,-99.99,,,-99.99,,2013-01-18 16:33:00,
2013-01-18 11:43:00,51.0,40.0,30.29,East,97,6.0,12.0,65,-99.99,,,-99.99,,2013-01-18 16:43:00,
2013-01-18 11:53:00,51.0,40.0,30.29,East,97,6.0,12.0,65,-99.99,,,-99.99,,2013-01-18 16:53:00,
2013-01-18 12:03:00,51.0,40.0,30.29,ENE,76,6.0,11.0,66,-99.99,,,-99.99,,2013-01-18 17:03:00,
2013-01-18 12:13:00,51.0,40.0,30.29,ENE,76,6.0,11.0,66,-99.99,,,-99.99,,2013-01-18 17:13:00,
2013-01-18 12:23:00,54.0,40.0,30.27,SSE,148,4.0,8.0,58,-99.99,,,-99.99,,2013-01-18 17:23:00,
2013-01-18 12:34:00,54.0,40.0,30.27,SSE,148,4.0,8.0,58,-99.99,,,-99.99,,2013-01-18 17:34:00,
2013-01-18 12:43:00,55.0,41.0,30.26,SW,216,4.0,7.0,58,-99.99,,,-99.99,,2013-01-18 17:43:00,
2013-01-18 12:53:00,55.0,41.0,30.26,SW,216,4.0,7.0,58,-99.99,,,-99.99,,2013-01-18 17:53:00,
2013-01-18 13:03:00,56.0,42.0,30.25,SSE,168,4.0,14.0,57,-99.99,,,-99.99,,2013-01-18 18:03:00,
2013-01-18 13:13:00,56.0,42.0,30.25,SSE,168,4.0,14.0,57,-99.99,,,-99.99,,2013-01-18 18:13:00,
2013-01-18 13:24:00,59.0,43.0,30.23,SE,131,4.0,9.0,56,-99.99,,,-99.99,,2013-01-18 18:24:00,
2013-01-18 13:33:00,59.0,43.0,30.23,SE,131,4.0,9.0,56,-99.99,,,-99.99,,2013-01-18 18:33:00,
2013-01-18 13:43:00,61.0,44.0,30.22,SE,127,4.0,10.0,54,-99.99,,,-99.99,,2013-01-18 18:43:00,
2013-01-18 13:53:00,61.0,44.0,30.22,SE,127,4.0,10.0,54,-99.99,,,-99.99,,2013-01-18 18:53:00,
2013-01-18 14:03:00,61.0,45.0,30.21,ENE,64,6.0,12.0,55,-99.99,,,-99.99,,2013-01-18 19:03:00,
2013-01-18 14:13:00,61.0,45.0,30.21,ENE,64,6.0,12.0,55,-99.99,,,-99.99,,2013-01-18 19:13:00,
2013-01-18 14:23:00,62.0,46.0,30.20,East,79,5.0,10.0,53,-99.99,,,-99.99,,2013-01-18 19:23:00,
2013-01-18 14:33:00,62.0,46.0,30.20,East,79,5.0,10.0,53,-99.99,,,-99.99,,2013-01-18 19:33:00,
2013-01-18 14:43:00,63.0,46.0,30.19,East,88,5.0,10.0,53,-99.99,,,-99.99,,2013-01-18 19:43:00,
2013-01-18 14:53:00,63.0,46.0,30.19,East,88,5.0,10.0,53,-99.99,,,-99.99,,2013-01-18 19:53:00,
2013-01-18 15:03:00,64.0,47.0,30.18,East,87,5.0,10.0,53,-99.99,,,-99.99,,2013-01-18 20:03:00,
2013-01-18 15:13:00,64.0,47.0,30.18,East,87,5.0,10.0,53,-99.99,,,-99.99,,2013-01-18 20:13:00,
2013-01-18 15:23:00,66.0,48.0,30.18,ENE,74,6.0,13.0,53,-99.99,,,-99.99,,2013-01-18 20:23:00,
2013-01-18 15:33:00,66.0,48.0,30.18,ENE,74,6.0,13.0,53,-99.99,,,-99.99,,2013-01-18 20:33:00,
2013-01-18 15:43:00,66.0,49.0,30.18,ENE,65,6.0,13.0,53,-99.99,,,-99.99,,2013-01-18 20:43:00,
2013-01-18 15:53:00,66.0,49.0,30.18,ENE,65,6.0,13.0,53,-99.99,,,-99.99,,2013-01-18 20:53:00,
2013-01-18 16:03:00,66.0,50.0,30.17,ENE,67,7.0,13.0,54,-99.99,,,-99.99,,2013-01-18 21:03:00,
2013-01-18 16:13:00,66.0,50.0,30.17,ENE,67,7.0,13.0,54,-99.99,,,-99.99,,2013-01-18 21:13:00,
2013-01-18 16:23:00,66.0,51.0,30.17,East,85,6.0,11.0,57,-99.99,,,-99.99,,2013-01-18 21:23:00,
2013-01-18 16:33:00,66.0,51.0,30.17,East,85,6.0,11.0,57,-99.99,,,-99.99,,2013-01-18 21:33:00,
2013-01-18 16:43:00,67.0,52.0,30.17,ENE,75,8.0,16.0,57,-99.99,,,-99.99,,2013-01-18 21:43:00,
2013-01-18 16:53:00,67.0,52.0,30.17,ENE,75,8.0,16.0,57,-99.99,,,-99.99,,2013-01-18 21:53:00,
2013-01-18 17:03:00,67.0,52.0,30.18,NE,53,7.0,14.0,59,-99.99,,,-99.99,,2013-01-18 22:03:00,
2013-01-18 17:12:00,67.0,52.0,30.18,NE,53,7.0,14.0,59,-99.99,,,-99.99,,2013-01-18 22:12:00,
2013-01-18 17:23:00,66.0,53.0,30.18,NE,48,5.0,11.0,62,-99.99,,,-99.99,,2013-01-18 22:23:00,
2013-01-18 17:33:00,66.0,53.0,30.18,NE,48,5.0,11.0,62,-99.99,,,-99.99,,2013-01-18 22:33:00,
2013-01-18 17:43:00,66.0,53.0,30.18,ENE,57,6.0,11.0,62,-99.99,,,-99.99,,2013-01-18 22:43:00,
2013-01-18 17:53:00,66.0,53.0,30.18,ENE,57,6.0,11.0,62,-99.99,,,-99.99,,2013-01-18 22:53:00,
2013-01-18 18:03:00,65.0,53.0,30.18,ENE,59,5.0,10.0,63,-99.99,,,-99.99,,2013-01-18 23:03:00,
2013-01-18 18:12:00,65.0,53.0,30.18,ENE,59,5.0,10.0,63,-99.99,,,-99.99,,2013-01-18 23:12:00,
2013-01-18 18:23:00,64.0,54.0,30.19,East,83,2.0,5.0,67,-99.99,,,-99.99,,2013-01-18 23:23:00,
2013-01-18 18:33:00,64.0,54.0,30.19,East,83,2.0,5.0,67,-99.99,,,-99.99,,2013-01-18 23:33:00,
2013-01-18 18:43:00,64.0,54.0,30.19,East,85,2.0,3.0,69,-99.99,,,-99.99,,2013-01-18 23:43:00,
2013-01-18 18:53:00,64.0,54.0,30.19,East,85,2.0,3.0,69,-99.99,,,-99.99,,2013-01-18 23:53:00,
2013-01-18 19:03:00,62.0,54.0,30.19,NE,45,2.0,3.0,73,-99.99,,,-99.99,,2013-01-19 00:03:00,
2013-01-18 19:13:00,62.0,54.0,30.19,NE,45,2.0,3.0,73,-99.99,,,-99.99,,2013-01-19 00:13:00,
2013-01-18 19:23:00,59.0,54.0,30.20,NE,52,1.0,2.0,81,-99.99,,,-99.99,,2013-01-19 00:23:00,
2013-01-18 19:33:00,59.0,54.0,30.20,NE,52,1.0,2.0,81,-99.99,,,-99.99,,2013-01-19 00:33:00,
2013-01-18 19:43:00,58.0,53.0,30.20,ENE,58,1.0,2.0,84,-99.99,,,-99.99,,2013-01-19 00:43:00,
2013-01-18 19:53:00,58.0,53.0,30.20,ENE,58,1.0,2.0,84,-99.99,,,-99.99,,2013-01-19 00:53:00,
2013-01-18 20:03:00,56.0,52.0,30.20,NW,309,2.0,2.0,86,-99.99,,,-99.99,,2013-01-19 01:03:00,
2013-01-18 20:12:00,56.0,52.0,30.20,NW,309,2.0,2.0,86,-99.99,,,-99.99,,2013-01-19 01:12:00,
2013-01-18 20:23:00,55.0,52.0,30.21,South,189,3.0,5.0,91,-99.99,,,-99.99,,2013-01-19 01:23:00,
2013-01-18 20:33:00,55.0,52.0,30.21,South,189,3.0,5.0,91,-99.99,,,-99.99,,2013-01-19 01:33:00,
2013-01-18 20:43:00,55.0,52.0,30.20,ESE,114,4.0,7.0,91,-99.99,,,-99.99,,2013-01-19 01:43:00,
2013-01-18 20:53:00,55.0,52.0,30.20,ESE,114,4.0,7.0,91,-99.99,,,-99.99,,2013-01-19 01:53:00,
2013-01-18 21:03:00,57.0,52.0,30.21,East,92,3.0,5.0,84,-99.99,,,-99.99,,2013-01-19 02:03:00,
2013-01-18 21:12:00,57.0,52.0,30.21,East,92,3.0,5.0,84,-99.99,,,-99.99,,2013-01-19 02:12:00,
2013-01-18 21:23:00,56.0,52.0,30.21,NE,54,2.0,4.0,85,-99.99,,,-99.99,,2013-01-19 02:23:00,
2013-01-18 21:33:00,56.0,52.0,30.21,NE,54,2.0,4.0,85,-99.99,,,-99.99,,2013-01-19 02:33:00,
2013-01-18 21:43:00,54.0,51.0,30.21,SSE,164,2.0,4.0,88,-99.99,,,-99.99,,2013-01-19 02:43:00,
2013-01-18 21:53:00,54.0,51.0,30.21,SSE,164,2.0,4.0,88,-99.99,,,-99.99,,2013-01-19 02:53:00,
2013-01-18 22:03:00,54.0,51.0,30.21,SE,128,2.0,3.0,90,-99.99,,,-99.99,,2013-01-19 03:03:00,
2013-01-18 22:12:00,54.0,51.0,30.21,SE,128,2.0,3.0,90,-99.99,,,-99.99,,2013-01-19 03:12:00,
2013-01-18 22:23:00,53.0,51.0,30.21,SE,130,2.0,4.0,92,-99.99,,,-99.99,,2013-01-19 03:23:00,
2013-01-18 22:33:00,53.0,51.0,30.21,SE,130,2.0,4.0,92,-99.99,,,-99.99,,2013-01-19 03:33:00,
2013-01-18 22:43:00,53.0,51.0,30.21,WNW,283,2.0,5.0,93,-99.99,,,-99.99,,2013-01-19 03:43:00,
2013-01-18 22:53:00,53.0,51.0,30.21,WNW,283,2.0,5.0,93,-99.99,,,-99.99,,2013-01-19 03:53:00,
2013-01-18 23:02:00,56.0,53.0,30.22,South,191,4.0,8.0,92,-99.99,,,-99.99,,2013-01-19 04:02:00,
2013-01-18 23:12:00,56.0,53.0,30.22,South,191,4.0,8.0,92,-99.99,,,-99.99,,2013-01-19 04:12:00,
2013-01-18 23:22:00,59.0,55.0,30.21,ESE,109,4.0,7.0,86,-99.99,,,-99.99,,2013-01-19 04:22:00,
2013-01-18 23:33:00,59.0,55.0,30.21,ESE,109,4.0,7.0,86,-99.99,,,-99.99,,2013-01-19 04:33:00,
2013-01-18 23:42:00,58.0,55.0,30.21,ENE,74,3.0,7.0,87,-99.99,,,-99.99,,2013-01-19 04:42:00,
2013-01-18 23:53:00,58.0,55.0,30.21,ENE,74,3.0,7.0,87,-99.99,,,-99.99,,2013-01-19 04:53:00,